Regional Weather Roundup
Issued by NWS Upton, NY

Current Version | Previous Version | Text Only | Print | Product List | Glossary On
Versions: 1 2 3 4 5 6 7 8 9 10 11 12 13 14 15 16 17 18 19 20 21 22 23 24 25 26 27
000 ASUS41 KOKX 260209 RWROKX REGIONAL WEATHER ROUNDUP NATIONAL WEATHER SERVICE NEW YORK NY 1000 PM EDT THU MAY 25 2017 NOTE: "FAIR" INDICATES FEW OR NO CLOUDS BELOW 12,000 FEET WITH NO SIGNIFICANT WEATHER AND/OR OBSTRUCTIONS TO VISIBILITY. NYZ071-072-176-178-NJZ106-104-260300- NEW YORK CITY METRO AREA CITY SKY/WX TMP DP RH WIND PRES REMARKS Central Park CLOUDY 57 56 96 E10G17 29.52S Wall St Helipt CLOUDY 58 56 93 NE17G24 29.49S FOG Bronx Bot Gard N/A 55 54 94 NE12 29.51R LaGuardia APRT DRIZZLE 57 56 96 NE20 29.49S FOG Kennedy INTL DRZL/FOG 61 61 100 E10 29.49S VSB 1 Breezy Point N/A 57 N/A N/A NE9 N/A Newark/Liberty LGT RAIN 56 56 100 N7 29.49R FOG Teterboro CLOUDY 58 57 97 NE9 29.49R FOG $$ NYZ177-179-078>081-260300- LONG ISLAND NEW YORK CITY SKY/WX TMP DP RH WIND PRES REMARKS Jones Beach N/A 57 N/A N/A E17 N/A Matinecock PT NOT AVBL Farmingdale CLOUDY 59 59 100 NE8 29.50S FOG MacArthur/ISP LGT RAIN 58 58 100 NE7 29.51R VSB 1/2 Shirley CLOUDY 58 58 100 VRB6 29.52F FOG Mt Sinai Harb N/A 55 N/A N/A E14G21 N/A Westhampton LGT RAIN 58 56 93 E7 29.54F FOG East Hampton TSTM 55 55 99 E7 29.55S Montauk N/A 56 56 100 E10G20 29.57F $$ NYZ052-065-067-260300- HUDSON VALLEY CITY SKY/WX TMP DP RH WIND PRES REMARKS White Plains N/A 57 55 93 E9 29.50F FOG Larchmont Harb N/A 55 N/A N/A NE21 N/A Croton O-T Hud N/A 57 N/A N/A N1 N/A Newburgh CLOUDY 57 57 100 E8 29.56F FOG Montgomery LGT RAIN 57 55 93 NE10 29.54F FOG Poughkeepsie CLOUDY 57 53 86 N8 29.54F Albany LGT RAIN 56 52 86 NE8 29.60F $$ NJZ001-105-106-008-010-013-015-019>022-104-260300- NEW JERSEY CITY SKY/WX TMP DP RH WIND PRES REMARKS Newark/Liberty LGT RAIN 56 56 100 N7 29.49R FOG Teterboro CLOUDY 58 57 97 NE9 29.49R FOG Caldwell CLOUDY 60 57 89 CALM 29.51R FOG Somerville CLOUDY 59 57 93 CALM 29.47F Linden DRIZZLE 58 57 94 N6 29.50R Perth Amboy N/A 57 N/A N/A N9 N/A Sussex HVY RAIN 58 58 100 N9 29.54R FOG Andover N/A 58 57 97 NE6 29.50F Trenton MOCLDY 60 58 92 NE10 29.45F Millville LGT RAIN 58 58 100 W3 29.48R Atlantic City LGT RAIN 64 55 72 W12 29.47R Wrightstown CLOUDY 58 57 97 N8 29.45R Toms River NOT AVBL Belmar LGT RAIN 58 58 100 NW7 29.48R FOG $$ PAZ047>061-062-071-260300- EASTERN PENNSYLVANIA CITY SKY/WX TMP DP RH WIND PRES REMARKS Philadelphia TSTM 59 56 89 NW9 29.50R FOG Allentown CLOUDY 60 57 89 N5 29.49R Scranton LGT RAIN 60 58 92 NE8 29.50F $$ CTZ002-004>006-009-010-012-RIZ004-006-007-MAZ004-011-015-260300- SOUTHERN NEW ENGLAND IN CT CITY SKY/WX TMP DP RH WIND PRES REMARKS Bradley INTL DRIZZLE 53 52 96 N10 29.61F Hartford LGT RAIN 54 53 97 N12 29.59F FOG Danbury CLOUDY 54 54 100 NE12 29.54F FOG Wtrbury/Oxford N/A 54 48 82 NE13G22 29.56S Bridgeport LGT RAIN 58 55 90 NE13 29.52F Meriden CLOUDY 54 54 100 N9 29.57F FOG New Haven CLOUDY 56 55 97 NE13 29.54F Chester CLOUDY 55 55 100 NE8 29.56F FOG Groton RAIN 56 55 97 NE12 29.56F FOG Wilimantic CLOUDY 55 53 93 NE13 29.60F IN RI CITY SKY/WX TMP DP RH WIND PRES REMARKS Providence DRZL/FOG 53 53 100 N14 29.62F VSB 1 Block Island LGT RAIN 55 55 100 MISG N/A VSB 1/2 Westerly CLOUDY 56 55 97 N7 29.58F IN MA CITY SKY/WX TMP DP RH WIND PRES REMARKS Boston DRIZZLE 51 51 100 NE18 29.66F FOG Worcester LGT RAIN 48 47 96 NE12G23 29.64F FOG Westfield CLOUDY 52 52 100 N9 29.62F Provincetown FOG 52 52 100 E10 29.65S VSB 1 Nantucket LGT RAIN 56 55 97 SE8 29.61F VSB 1/4 $$ ANZ330-335-338-340-345-350-353-355-260300- COASTAL MARINE OBSERVATIONS STATION/POSITION TIME SKY/WX TEMP WIND PRES VSBY WAVE AIR SEA DIR/SP/G HT/PER (UTC) (F) (DEG/KT/KT) (MB) (MI) (FT/S) NY HARB ENTRANCE 0050 57 56 60/ 10/ 12 997.7 4/ 6 20 S FIRE ISLAND 0150 57 54 120/ 10/ 12 997.8 5/ 6 GREAT SOUTH BAY 0130 58 62 80/ 17/ 19 N/A 23 SSW MONTAUK P 0050 54 53 1000.4 5/ 8 15 E BARNEGAT LI 0100 57 N/A 5/ 8 HUDSON CANYON 0050 59 53 150/ 14/ 16 999.3 6/ 8 KINGS POINT 0130 56 57 90/ 7/ 12 998.6 EXECUTION ROCKS 0145 57 N/A CENTRAL LI SOUND NOT AVBL EASTERN LI SOUND NOT AVBL ROBBINS REEF 0130 58 50/ 12/ 14 998.8 $$ >>>>>>>>>>>>>>>>>>>>>>>>>>>> KEY <<<<<<<<<<<<<<<<<<<<<<<<<<< > < > SKY/WX - Sky Condition/Present Weather < > TMP - Temperature in Fahrenheit < > DP - Dew Point in Fahrenheit < > RH - Relative Humidity in Percent < > WIND - Direction (from) and Speed in MPH < > PRES - Mean Sea Level Pressure (inches of Hg) < > WCI - Wind Chill Index < > VSB - VISIBILITY IN MILES < > HX - HEAT INDEX < > TC - TEMPERATURE IN CELSIUS < > VRB - VARIABLE WIND DIRECTION < > < >>>>>>>>>>>>>>>>>>>>>>>>>>>> KEY <<<<<<<<<<<<<<<<<<<<<<<<<<<

USA.gov is the U.S. government's official web portal to all federal, state and local government web resources and services.